CW5346 Weather Reports


Display with metric or nautical units.
time (UTC)temp
F
wind
direction
speed
MPH
gust
MPH
rain 1hr
in
rain 24hr
in
rain mn
in
humidity
%
barometer
mb
20260506112603 66 222 4.0 16.0 0.00 0.00 0.00 79 1008.9
20260506111603 65 230 0.0 9.0 0.00 0.00 0.00 80 1009.0
20260506110603 65 185 3.0 14.0 0.00 0.00 0.00 80 1009.0
20260506105603 65 246 5.0 9.0 0.00 0.00 0.00 80 1008.8
20260506104603 64 214 6.0 14.0 0.00 0.00 0.00 81 1008.9
20260506103602 64 232 4.0 15.0 0.00 0.00 0.00 81 1009.0
20260506102603 64 227 4.0 8.0 0.00 0.00 0.00 82 1008.9
20260506101602 64 255 1.0 8.0 0.00 0.00 0.00 82 1008.8
20260506100603 64 261 3.0 10.0 0.00 0.00 0.00 83 1008.8
20260506095602 63 220 3.0 8.0 0.00 0.00 0.00 84 1008.5
20260506094603 63 211 1.0 8.0 0.00 0.00 0.00 84 1008.7
20260506093603 62 232 0.0 13.0 0.00 0.00 0.00 84 1008.7
20260506092603 62 213 0.0 4.0 0.00 0.00 0.00 84 1008.7
20260506091602 62 213 0.0 6.0 0.00 0.00 0.00 84 1008.7
20260506090603 62 211 0.0 6.0 0.00 0.00 0.00 83 1008.7
20260506085603 62 213 2.0 7.0 0.00 0.00 0.00 83 1008.8
20260506084623 62 213 0.0 5.0 0.00 0.00 0.00 83 1008.9
20260506083603 62 214 2.0 6.0 0.00 0.00 0.00 82 1009.0
20260506082605 62 215 0.0 1.0 0.00 0.00 0.00 82 1008.9
20260506081605 62 214 1.0 5.0 0.00 0.00 0.00 82 1009.0
20260506080605 63 213 0.0 3.0 0.00 0.00 0.00 80 1009.0
20260506072604 65 217 3.0 7.0 0.00 0.00 0.00 76 1009.1
20260506071604 65 227 0.0 7.0 0.00 0.00 0.00 75 1009.0
20260506070604 65 208 0.0 6.0 0.00 0.00 0.00 74 1009.1
20260506061604 67 203 0.0 6.0 0.00 0.00 0.00 71 1009.2
20260506060604 67 199 1.0 7.0 0.00 0.00 0.00 70 1009.1
20260506050604 68 198 1.0 8.0 0.00 0.00 0.00 67 1009.8
20260506044604 68 228 0.0 11.0 0.00 0.00 0.00 66 1009.8
20260506043604 69 198 4.0 13.0 0.00 0.00 0.00 65 1009.7
20260506042604 69 237 4.0 15.0 0.00 0.00 0.00 65 1009.8
20260506041603 69 224 3.0 14.0 0.00 0.00 0.00 65 1009.7
20260506040646 69 225 2.0 10.0 0.00 0.00 0.00 64 1009.7
20260506035604 70 238 2.0 10.0 0.00 0.00 0.00 63 1009.6
20260506034605 70 235 2.0 11.0 0.00 0.00 0.00 62 1009.7
20260506033605 70 210 2.0 14.0 0.00 0.00 0.00 61 1009.7
20260506032604 71 224 1.0 8.0 0.00 0.00 0.00 60 1009.6
20260506030604 72 178 1.0 10.0 0.00 0.00 0.00 58 1009.5
20260506025604 72 214 4.0 16.0 0.00 0.00 0.00 57 1009.5
20260506024604 73 227 6.0 15.0 0.00 0.00 0.00 56 1009.4
20260506023604 73 220 5.0 19.0 0.00 0.00 0.00 54 1009.4
20260506022604 73 207 7.0 17.0 0.00 0.00 0.00 53 1009.4
20260506021603 74 233 5.0 16.0 0.00 0.00 0.00 51 1009.3
20260506020625 74 225 5.0 18.0 0.00 0.00 0.00 49 1009.3
20260506015625 74 225 4.0 14.0 0.00 0.00 0.00 49 1009.1
20260506014604 75 202 4.0 12.0 0.00 0.00 0.00 48 1009.1
20260506013604 75 194 2.0 15.0 0.00 0.00 0.00 48 1008.8
20260506012604 75 228 2.0 14.0 0.00 0.00 0.00 47 1008.8
20260506011604 75 208 5.0 11.0 0.00 0.00 0.00 47 1008.8
20260506010604 76 208 8.0 15.0 0.00 0.00 0.00 46 1008.7
20260506005604 76 219 1.0 15.0 0.00 0.00 0.00 45 1008.5
20260506004604 76 199 1.0 11.0 0.00 0.00 0.00 44 1008.5
20260506002604 77 218 4.0 12.0 0.00 0.00 0.00 41 1008.2
20260506001604 77 216 2.0 9.0 0.00 0.00 0.00 40 1008.0
20260506000625 77 240 1.0 15.0 0.00 0.00 0.00 40 1008.0
20260505235626 78 220 7.0 14.0 0.00 0.00 0.00 39 1007.8
20260505233604 78 199 1.0 8.0 0.00 0.00 0.00 38 1007.8
20260505232604 78 225 1.0 15.0 0.00 0.00 0.00 38 1007.8
20260505231604 79 206 1.0 14.0 0.00 0.00 0.00 37 1007.6
20260505230604 79 230 4.0 15.0 0.00 0.00 0.00 36 1007.3
20260505225604 79 217 5.0 14.0 0.00 0.00 0.00 36 1007.2
20260505224604 79 216 5.0 17.0 0.00 0.00 0.00 35 1007.3
20260505223626 80 219 7.0 17.0 0.00 0.00 0.00 34 1007.1
20260505222603 81 238 4.0 20.0 0.00 0.00 0.00 34 1007.1
20260505221604 81 256 6.0 18.0 0.00 0.00 0.00 33 1007.0
20260505220604 81 216 4.0 22.0 0.00 0.00 0.00 33 1007.0
20260505215604 82 228 8.0 20.0 0.00 0.00 0.00 34 1006.9
20260505214604 81 255 3.0 23.0 0.00 0.00 0.00 34 1006.9
20260505213604 81 202 8.0 29.0 0.00 0.00 0.00 34 1006.8
20260505212605 81 222 11.0 32.0 0.00 0.00 0.00 34 1006.5
20260505211603 82 216 13.0 23.0 0.00 0.00 0.00 35 1006.4
20260505210625 82 195 9.0 23.0 0.00 0.00 0.00 36 1006.5
20260505205604 82 240 4.0 16.0 0.00 0.00 0.00 35 1006.4
20260505204604 82 204 7.0 26.0 0.00 0.00 0.00 36 1006.5
20260505203604 82 222 7.0 22.0 0.00 0.00 0.00 35 1006.8
20260505202604 83 186 6.0 21.0 0.00 0.00 0.00 34 1006.8
20260505200604 83 207 5.0 26.0 0.00 0.00 0.00 35 1006.8
20260505195603 83 220 8.0 21.0 0.00 0.00 0.00 35 1006.7
20260505194604 82 205 9.0 24.0 0.00 0.00 0.00 35 1006.8
20260505193603 82 213 7.0 27.0 0.00 0.00 0.00 37 1006.8
20260505192604 83 221 10.0 25.0 0.00 0.00 0.00 36 1007.0
20260505191604 83 202 7.0 21.0 0.00 0.00 0.00 36 1007.0
20260505190604 84 206 8.0 18.0 0.00 0.00 0.00 36 1007.2
20260505185625 84 203 6.0 20.0 0.00 0.00 0.00 38 1007.4
20260505184603 83 262 5.0 20.0 0.00 0.00 0.00 38 1007.5
20260505183625 83 249 10.0 21.0 0.00 0.00 0.00 37 1008.0
20260505182604 83 228 8.0 16.0 0.00 0.00 0.00 40 1008.0
20260505181603 83 182 8.0 19.0 0.00 0.00 0.00 42 1007.9
20260505180604 82 242 11.0 21.0 0.00 0.00 0.00 41 1008.0
20260505175604 82 203 12.0 22.0 0.00 0.00 0.00 42 1008.1
20260505174604 82 213 5.0 20.0 0.00 0.00 0.00 44 1008.1
20260505173603 82 212 3.0 13.0 0.00 0.00 0.00 45 1008.1
20260505172604 81 212 8.0 16.0 0.00 0.00 0.00 44 1008.2
20260505171646 81 254 6.0 14.0 0.00 0.00 0.00 44 1008.4
20260505170625 80 212 7.0 18.0 0.00 0.00 0.00 47 1008.4
20260505165604 80 210 5.0 15.0 0.00 0.00 0.00 46 1008.6
20260505163604 80 179 3.0 17.0 0.00 0.00 0.00 49 1008.9
20260505162604 79 209 10.0 16.0 0.00 0.00 0.00 48 1009.0
20260505161605 78 255 6.0 15.0 0.00 0.00 0.00 52 1009.2
20260505160603 78 176 2.0 14.0 0.00 0.00 0.00 51 1009.3
20260505152604 76 168 6.0 12.0 0.00 0.00 0.00 54 1009.8
20260505151603 76 178 5.0 12.0 0.00 0.00 0.00 54 1009.9
20260505150604 76 191 1.0 10.0 0.00 0.00 0.00 54 1009.9
20260505140604 71 242 4.0 10.0 0.00 0.00 0.00 61 1010.3
20260505124603 62 225 2.0 7.0 0.00 0.00 0.00 80 1010.1
20260505123604 59 236 0.0 0.0 0.00 0.00 0.00 87 1010.2
20260505122604 57 232 0.0 0.0 0.00 0.00 0.00 93 1010.2
20260505121604 54 232 0.0 0.0 0.00 0.00 0.00 95 1010.4
20260505120604 53 232 0.0 0.0 0.00 0.00 0.00 96 1010.7
20260505115604 51 232 0.0 0.0 0.00 0.00 0.00 95 1010.7
20260505114625 50 232 0.0 0.0 0.00 0.00 0.00 95 1010.7
20260505113604 50 232 0.0 0.0 0.00 0.00 0.00 95 1010.5